Find Starlink 32826

NORAD ID: 62970 Int'l Des: 2025-029 Owner: SPXS Country: US Constellation: starlink operational
LEOCIRCULAR

实时位置

正在加载3D地球...

关于 Starlink 32826

正在加载描述...

即将过境

Passes for default location (London). Set your location on the main map for personalized predictions.

高度历史

Loading altitude history...

两行轨道根数

1 62970U 25029Y 26105.86952258 .00008305 00000-0 29221-3 0 9996
2 62970 53.1588 59.4929 0001460 95.8030 264.3137 15.30198925 67013
Epoch: Apr 15, 2026 • Age: 11 hours

当前状态

高度 486.9 km
速度 7.62 km/s
星下点 -34.50°S, 67.44°E
发射日期 Feb 11, 2025
运行时间 1.1 years
类型 internet

技术详情

分类 Payload
质量 730.00 kg
干质量 700.00 kg
总质量 730.00 kg
长度 0.30 m
直径 4.10 m
跨度 29.00 m
形状 Box + pan
制造商 SPXS
平台类型 Starlink V2M
阶段状态 In Orbit
所有者/国家 SPXS/US

Most Searched